This demonstration page uses our WeatherBlox Daily Observations layout. Learn more.

Left ArrowRight Arrow

38.20091, -84.87328

Hourly Observations for August 24, 2017

Temp ( °F °C ) Dew Point ( °F °C ) Humidity (%) Winds ( mph kmh ) Pressure ( in mb ) Visibility ( mi km ) Precip ( " mm )
12:53 am 00:53 Mostly Clear 62 16.7 57 13.9 84 84 NNW 5 7 30.00 1016 10 16 0.00 0.00
1:53 am 01:53 Mostly Clear 61 16.1 56 13.3 84 84 Calm 30.00 1016 10 16 0.00 0.00
2:53 am 02:53 Clear 60 15.6 55 12.8 84 84 N 3 6 29.99 1016 10 16 0.00 0.00
3:53 am 03:53 Mostly Clear 58 14.4 54 12.2 87 87 Calm 30.00 1016 10 16 0.00 0.00
4:53 am 04:53 Clear 57 13.9 53 11.7 87 87 NNW 3 6 30.00 1016 10 16 0.00 0.00
5:53 am 05:53 Clear 56 13.3 52 11.1 87 87 Calm 30.01 1016 10 16 0.00 0.00
6:53 am 06:53 Clear 56 13.3 52 11.1 87 87 Calm 30.02 1017 10 16 0.00 0.00
7:53 am 07:53 Sunny 58 14.4 54 12.2 87 87 Calm 30.03 1017 10 16 0.00 0.00
8:53 am 08:53 Sunny 64 17.8 54 12.2 70 70 Calm 30.05 1018 10 16 0.00 0.00
9:53 am 09:53 Sunny 68 20 53 11.7 59 59 NE 6 9 30.06 1018 10 16 0.00 0.00
10:53 am 10:53 Sunny 73 22.8 52 11.1 48 48 VRB 5 7 30.06 1018 10 16 0.00 0.00
11:53 am 11:53 Sunny 76 24.4 49 9.4 39 39 VRB 3 6 30.06 1018 10 16 0.00 0.00
12:53 pm 12:53 Sunny 79 26.1 50 10 36 36 NNE 8 13 30.05 1018 10 16 0.00 0.00
1:53 pm 13:53 Mostly Sunny 78 25.6 49 9.4 36 36 N 8 13 30.04 1017 10 16 0.00 0.00
2:53 pm 14:53 Mostly Sunny 77 25 48 8.9 36 36 VRB 5 7 30.04 1017 10 16 0.00 0.00
3:53 pm 15:53 Mostly Sunny 79 26.1 49 9.4 35 35 W 5 7 30.03 1017 10 16 0.00 0.00
4:53 pm 16:53 Mostly Cloudy 81 27.2 49 9.4 33 33 VRB 5 7 30.02 1017 10 16 0.00 0.00
5:53 pm 17:53 Mostly Sunny 79 26.1 49 9.4 35 35 N 6 9 30.02 1017 10 16 0.00 0.00
6:53 pm 18:53 Sunny 78 25.6 49 9.4 36 36 NNW 6 9 30.01 1016 10 16 0.00 0.00
7:53 pm 19:53 Mostly Cloudy 76 24.4 51 10.6 42 42 N 6 9 30.02 1017 10 16 0.00 0.00
8:53 pm 20:53 Clear 67 19.4 54 12.2 63 63 Calm 30.03 1017 10 16 0.00 0.00
9:53 pm 21:53 Clear 65 18.3 54 12.2 68 68 Calm 30.04 1017 10 16 0.00 0.00
10:53 pm 22:53 Clear 62 16.7 54 12.2 75 75 Calm 30.05 1018 10 16 0.00 0.00
11:53 pm 23:53 Clear 61 16.1 54 12.2 78 78 Calm 30.06 1018 10 16 0.00 0.00

Powered by AerisWeather